Погода в Манине

Россия / Воронежская область     50°28′31″N   41°23′30″E
темп.,
°C
ветер,
м/с
пор.,
м/с
влажн.,
%
обл.,
%
осадки,
мм/ч
давл.,
гПа
погр.,
м
5 августа, чт
чт500:00+18ссв225994 0.0 101711
03:00+18ссв116480 0.0 101711
06:00+18ссз11634 0.0 101811
09:00+25в1042100 0.0 1017701
12:00+28з223020 0.0 10172507
15:00+29з322521 0.0 10162772
18:00+28з2227100 0.0 10151712
21:00+22всв3542100 0.0 101567
6 августа, пт
пт600:00+20в49485 0.0 1015141
03:00+19вюв3751100 0.0 1015119
06:00+20вюв494915 0.0 1015180
09:00+27юв683011 0.0 1014673
12:00+32ююв55235 0.0 10132130
15:00+33ююв542299 0.0 10112945
18:00+33юв462232 0.0 10112773
21:00+28юв6132760 0.0 1011431
7 августа, сб
сб700:00+24вюв614295 0.0 1012322
03:00+21вюв6143799 0.0 1012278
06:00+21вюв61536100 0.0 1012392
09:00+29юв710224 0.0 1012807
12:00+33юв7817100 0.0 10112013
15:00+34юв6716100 0.0 10102217
18:00+33в6717100 0.0 10091130
21:00+25вюв41127100 0.0 1011174
8 августа, вс
вс800:00+24в492592 0.0 1011128
03:00+24вюв3425100 0.0 101157
06:00+25в3725100 0.0 1011155
09:00+27в2425100 0.0 1011246
12:00+32ююв3621100 0.0 10121321
15:00+31ссв6723100 0.0 1011599
18:00+28ссв5929100 0.0 1012256
21:00+26ссв8143399 0.0 1012535
9 августа, пн
пн900:00+27ссв71433100 0.0 1011519
03:00+26св6143499 0.0 1011437
06:00+26св6143471 0.0 1011449
09:00+29ссв7103562 0.0 1010743
12:00+34с782397 0.0 10102445
15:00+35ссз872262 0.0 10093108
18:00+32с772715 0.0 10102323
21:00+25ссз48445 0.0 1011137